Tracking 25710 objects as of 5-Jul-2022
HD Live streaming from Space Station
objects crossing your sky now

STARLINK-1620

Track STARLINK-1620 now!
10-day predictions
STARLINK-1620 is classified as:


NORAD ID: 46149
Int'l Code: 2020-057AJ
Perigee: 553.3 km
Apogee: 555.4 km
Inclination: 53.1 °
Period: 95.6 minutes
Semi major axis: 6925 km
RCS: Unknown
Launch date: August 18, 2020
Source: United States (US)
Launch site: AIR FORCE EASTERN TEST RANGE (AFETR)
aabbcc
Your satellite tracking list
Your tracking list is empty




NASA's NSSDC Master Catalog

Two Line Element Set (TLE):
1 46149U 20057AJ  22185.80040284  .00001179  00000-0  98050-4 0  9996
2 46149  53.0540 209.5663 0001551  65.6491 294.4660 15.06395265105062
Source of the keplerian elements: AFSPC